LX0WX-13 Weather Reports


time (UTC)temp
C
wind
direction
speed
KPH
gust
KPH
rain 1hr
cm
rain 24hr
cm
rain mn
cm
humidity
%
barometer
mb
20260502214601 13 247 0.0 0.0 0.00 0.00 0.00 54 1011.7
20260502214101 13 247 0.0 0.0 0.00 0.00 0.00 54 1011.7
20260502213601 13 247 0.0 0.0 0.00 0.00 0.00 55 1011.8
20260502213101 13 247 0.0 0.0 0.00 0.00 0.00 55 1011.9
20260502212601 13 292 0.0 0.0 0.00 0.00 0.00 55 1011.8
20260502212101 13 292 0.0 0.0 0.00 0.00 0.00 56 1011.8
20260502211601 13 180 0.0 0.0 0.00 0.00 0.00 55 1011.9
20260502211101 13 180 0.0 0.0 0.00 0.00 0.00 55 1011.8
20260502210601 13 180 0.0 0.0 0.00 0.00 0.00 55 1011.8
20260502210101 13 180 0.0 0.0 0.00 0.00 0.00 55 1011.8
20260502205601 13 180 0.0 0.0 0.00 0.00 0.00 54 1011.9
20260502205101 13 180 0.0 0.0 0.00 0.00 0.00 54 1011.9
20260502204601 13 180 0.0 0.0 0.00 0.00 0.00 54 1012.0
20260502204101 13 180 0.0 3.2 0.00 0.00 0.00 54 1012.1
20260502203601 13 180 1.6 1.6 0.00 0.00 0.00 54 1012.2
20260502203101 13 180 0.0 3.2 0.00 0.00 0.00 55 1012.2
20260502202601 13 180 0.0 1.6 0.00 0.00 0.00 55 1012.2
20260502202101 14 157 0.0 0.0 0.00 0.00 0.00 55 1012.2
20260502201601 13 157 0.0 3.2 0.00 0.00 0.00 55 1012.2
20260502201101 13 135 0.0 0.0 0.00 0.00 0.00 56 1012.1
20260502200601 14 135 0.0 0.0 0.00 0.00 0.00 56 1012.1
20260502200101 14 135 0.0 0.0 0.00 0.00 0.00 56 1012.1
20260502195601 14 135 0.0 0.0 0.00 0.00 0.00 56 1012.1
20260502195101 14 135 0.0 0.0 0.00 0.00 0.00 56 1012.1
20260502194601 14 135 0.0 0.0 0.00 0.00 0.00 56 1012.1
20260502194101 15 135 0.0 0.0 0.00 0.00 0.00 56 1012.0
20260502193601 15 135 0.0 0.0 0.00 0.00 0.00 55 1012.0
20260502193101 15 135 0.0 0.0 0.00 0.00 0.00 55 1012.1
20260502192601 15 135 0.0 0.0 0.00 0.00 0.00 54 1012.0
20260502192101 15 135 0.0 0.0 0.00 0.00 0.00 54 1012.0
20260502191601 15 135 0.0 0.0 0.00 0.00 0.00 54 1012.1
20260502191101 15 135 0.0 0.0 0.00 0.00 0.00 54 1012.0
20260502190601 15 135 0.0 0.0 0.00 0.00 0.00 54 1012.1
20260502190101 15 135 0.0 0.0 0.00 0.00 0.00 54 1012.1
20260502185601 16 135 0.0 0.0 0.00 0.00 0.00 55 1012.1
20260502185101 16 135 0.0 0.0 0.00 0.00 0.00 56 1012.1
20260502184601 16 135 0.0 4.8 0.00 0.00 0.00 55 1012.0
20260502184101 16 315 4.8 4.8 0.00 0.00 0.00 54 1012.1
20260502183601 16 315 0.0 1.6 0.00 0.00 0.00 52 1012.1
20260502183101 16 315 0.0 1.6 0.00 0.00 0.00 51 1012.0
20260502182601 16 247 0.0 1.6 0.00 0.00 0.00 49 1011.9
20260502182101 17 157 0.0 0.0 0.00 0.00 0.00 48 1011.9
20260502181601 17 157 0.0 1.6 0.00 0.00 0.00 47 1012.0
20260502181101 17 180 0.0 0.0 0.00 0.00 0.00 47 1012.0
20260502180601 17 180 0.0 0.0 0.00 0.00 0.00 47 1012.0
20260502164101 20 180 4.8 12.9 0.00 0.00 0.00 43 1012.3
20260502163601 20 180 6.4 8.0 0.00 0.00 0.00 43 1012.3
20260502163101 20 180 9.7 17.7 0.00 0.00 0.00 43 1012.4
20260502162601 20 180 3.2 8.0 0.00 0.00 0.00 43 1012.4
20260502162101 20 180 6.4 12.9 0.00 0.00 0.00 44 1012.5
20260502161601 20 157 0.0 6.4 0.00 0.00 0.00 45 1012.6
20260502161101 20 180 0.0 9.7 0.00 0.00 0.00 45 1012.6
20260502160601 20 180 9.7 12.9 0.00 0.00 0.00 45 1012.6
20260502152101 21 180 1.6 12.9 0.00 0.00 0.00 43 1012.9
20260502151602 22 180 1.6 17.7 0.00 0.00 0.00 42 1012.9
20260502151101 22 180 0.0 4.8 0.00 0.00 0.00 41 1013.1
20260502150601 23 180 0.0 17.7 0.00 0.00 0.00 39 1013.3
20260502130602 25 157 1.6 24.1 0.00 0.00 0.00 36 1014.6
20260502123602 26 202 8.0 11.3 0.00 0.00 0.00 31 1015.0
20260502123102 26 315 0.0 14.5 0.00 0.00 0.00 30 1015.0
20260502122602 26 180 3.2 17.7 0.00 0.00 0.00 30 1015.2
20260502122102 26 270 0.0 6.4 0.00 0.00 0.00 31 1015.1
20260502121602 26 270 0.0 11.3 0.00 0.00 0.00 32 1015.3
20260502121102 26 180 0.0 20.9 0.00 0.00 0.00 32 1015.3
20260502120602 26 157 11.3 16.1 0.00 0.00 0.00 32 1015.3
20260502115602 25 135 4.8 24.1 0.00 0.00 0.00 33 1015.6
20260502115102 25 157 9.7 11.3 0.00 0.00 0.00 35 1015.7
20260502114602 24 180 0.0 16.1 0.00 0.00 0.00 35 1015.7
20260502114102 23 157 16.1 22.5 0.00 0.00 0.00 36 1015.8
20260502113602 24 157 16.1 16.1 0.00 0.00 0.00 35 1015.8
20260502113102 23 180 6.4 14.5 0.00 0.00 0.00 36 1015.7
20260502112602 24 135 11.3 20.9 0.00 0.00 0.00 33 1015.9
20260502112102 24 157 3.2 22.5 0.00 0.00 0.00 35 1016.0
20260502111602 24 180 6.4 14.5 0.00 0.00 0.00 36 1016.0
20260502111102 23 157 1.6 20.9 0.00 0.00 0.00 37 1016.0
20260502110602 23 157 16.1 20.9 0.00 0.00 0.00 37 1016.1
20260502105602 22 180 14.5 14.5 0.00 0.00 0.00 38 1016.2
20260502105102 22 180 4.8 16.1 0.00 0.00 0.00 39 1016.1
20260502104602 22 180 11.3 17.7 0.00 0.00 0.00 38 1016.4
20260502104102 22 180 12.9 14.5 0.00 0.00 0.00 37 1016.3
20260502103602 22 135 9.7 17.7 0.00 0.00 0.00 37 1016.3
20260502103102 23 157 12.9 16.1 0.00 0.00 0.00 38 1016.4
20260502102602 22 180 0.0 11.3 0.00 0.00 0.00 40 1016.5
20260502102102 21 180 4.8 16.1 0.00 0.00 0.00 39 1016.4
20260502101602 21 157 8.0 17.7 0.00 0.00 0.00 38 1016.5
20260502101102 21 157 14.5 19.3 0.00 0.00 0.00 37 1016.3
20260502100602 22 247 0.0 17.7 0.00 0.00 0.00 37 1016.4
20260502091102 19 180 14.5 16.1 0.00 0.00 0.00 44 1016.8
20260502090602 18 157 4.8 16.1 0.00 0.00 0.00 45 1016.8
20260502071103 13 180 8.0 9.7 0.00 0.00 0.00 42 1017.1
20260502070603 13 180 4.8 9.7 0.00 0.00 0.00 42 1017.1
20260502065603 14 180 1.6 9.7 0.00 0.00 0.00 40 1017.0
20260502065103 14 180 1.6 6.4 0.00 0.00 0.00 40 1017.2
20260502064603 15 180 0.0 8.0 0.00 0.00 0.00 39 1017.1
20260502064103 15 180 1.6 8.0 0.00 0.00 0.00 38 1017.2
20260502063603 15 180 0.0 6.4 0.00 0.00 0.00 38 1017.0
20260502063103 15 180 0.0 4.8 0.00 0.00 0.00 39 1017.1
20260502062603 15 180 1.6 4.8 0.00 0.00 0.00 39 1017.0
20260502062103 15 180 3.2 3.2 0.00 0.00 0.00 40 1017.1
20260502061603 14 180 0.0 0.0 0.00 0.00 0.00 39 1017.2
20260502061103 15 180 0.0 1.6 0.00 0.00 0.00 38 1017.3
20260502060603 15 180 1.6 6.4 0.00 0.00 0.00 37 1017.4
20260502055603 16 180 0.0 8.0 0.00 0.00 0.00 37 1017.3
20260502055103 16 157 4.8 6.4 0.00 0.00 0.00 39 1017.5
20260502054603 15 180 0.0 1.6 0.00 0.00 0.00 40 1017.5
20260502054103 14 180 0.0 8.0 0.00 0.00 0.00 39 1017.5
20260502053603 13 180 0.0 3.2 0.00 0.00 0.00 40 1017.7
20260502053103 13 225 0.0 3.2 0.00 0.00 0.00 39 1017.8
20260502052603 14 180 0.0 11.3 0.00 0.00 0.00 36 1017.7
20260502052103 15 180 0.0 3.2 0.00 0.00 0.00 36 1017.7
20260502051603 15 180 0.0 4.8 0.00 0.00 0.00 35 1017.5
20260502051103 15 180 0.0 6.4 0.00 0.00 0.00 36 1017.3
20260502050603 15 180 6.4 8.0 0.00 0.00 0.00 38 1017.3
20260502045603 13 180 3.2 9.7 0.00 0.00 0.00 41 1017.1
20260502045103 12 180 3.2 3.2 0.00 0.00 0.00 43 1017.1
20260502044603 12 180 0.0 1.6 0.00 0.00 0.00 44 1017.1
20260502044103 11 180 0.0 0.0 0.00 0.00 0.00 44 1017.0
20260502043603 11 180 0.0 0.0 0.00 0.00 0.00 44 1017.1
20260502043103 10 180 0.0 3.2 0.00 0.00 0.00 44 1017.2
20260502042603 10 180 0.0 0.0 0.00 0.00 0.00 44 1017.0
20260502042103 10 180 0.0 0.0 0.00 0.00 0.00 44 1017.1
20260502041603 10 180 0.0 0.0 0.00 0.00 0.00 43 1016.9
20260502041103 10 180 0.0 3.2 0.00 0.00 0.00 44 1016.9
20260502040603 10 180 0.0 3.2 0.00 0.00 0.00 44 1017.1
20260502035603 10 180 1.6 3.2 0.00 0.00 0.00 44 1017.1
20260502035103 10 180 0.0 0.0 0.00 0.00 0.00 45 1017.0
20260502034603 10 180 0.0 3.2 0.00 0.00 0.00 44 1017.1
20260502034103 10 180 0.0 0.0 0.00 0.00 0.00 43 1017.1
20260502033603 10 180 0.0 0.0 0.00 0.00 0.00 43 1017.3
20260502033103 10 180 0.0 0.0 0.00 0.00 0.00 43 1017.4
20260502032603 10 180 0.0 0.0 0.00 0.00 0.00 42 1017.4
20260502032103 11 180 0.0 0.0 0.00 0.00 0.00 42 1017.7
20260502031603 11 180 0.0 0.0 0.00 0.00 0.00 42 1017.6
20260502031103 11 180 0.0 0.0 0.00 0.00 0.00 40 1017.7
20260502030603 11 180 0.0 0.0 0.00 0.00 0.00 40 1017.5
20260502025603 11 180 0.0 4.8 0.00 0.00 0.00 39 1017.3
20260502025103 11 180 1.6 6.4 0.00 0.00 0.00 39 1017.4
20260502024603 11 180 0.0 1.6 0.00 0.00 0.00 39 1017.3
20260502024103 11 180 0.0 1.6 0.00 0.00 0.00 39 1017.4
20260502023603 11 180 0.0 3.2 0.00 0.00 0.00 39 1017.5
20260502023103 11 180 0.0 6.4 0.00 0.00 0.00 38 1017.4
20260502022603 11 180 0.0 4.8 0.00 0.00 0.00 38 1017.5
20260502022103 11 180 3.2 9.7 0.00 0.00 0.00 38 1017.5
20260502021603 11 180 9.7 9.7 0.00 0.00 0.00 38 1017.6
20260502021103 11 180 8.0 9.7 0.00 0.00 0.00 38 1017.5
20260502020603 11 180 1.6 9.7 0.00 0.00 0.00 38 1017.6
20260502020103 11 180 1.6 6.4 0.00 0.00 0.00 38 1017.7
20260502015603 11 180 6.4 6.4 0.00 0.00 0.00 37 1017.7
20260502015103 11 180 0.0 8.0 0.00 0.00 0.00 37 1017.7
20260502014603 11 180 0.0 6.4 0.00 0.00 0.00 37 1017.6
20260502014103 12 180 0.0 8.0 0.00 0.00 0.00 37 1017.7
20260502013603 12 180 0.0 8.0 0.00 0.00 0.00 37 1017.8
20260502013103 12 180 3.2 8.0 0.00 0.00 0.00 37 1017.7
20260502012603 12 180 0.0 4.8 0.00 0.00 0.00 37 1017.7
20260502012103 12 180 0.0 6.4 0.00 0.00 0.00 36 1017.7
20260502011603 12 180 1.6 6.4 0.00 0.00 0.00 35 1017.8
20260502011103 12 180 0.0 6.4 0.00 0.00 0.00 35 1017.7
20260502010603 12 180 6.4 8.0 0.00 0.00 0.00 35 1017.8
20260502010103 12 180 0.0 3.2 0.00 0.00 0.00 35 1018.0
20260502005603 12 180 3.2 4.8 0.00 0.00 0.00 34 1018.1
20260502005103 12 180 1.6 8.0 0.00 0.00 0.00 34 1018.1
20260502004603 12 180 0.0 6.4 0.00 0.00 0.00 34 1018.2
20260502004103 12 180 3.2 9.7 0.00 0.00 0.00 34 1018.1
20260502003603 12 180 6.4 9.7 0.00 0.00 0.00 34 1018.1
20260502003103 12 180 3.2 8.0 0.00 0.00 0.00 34 1018.1
20260502002603 13 180 0.0 9.7 0.00 0.00 0.00 33 1018.2
20260502002103 13 157 8.0 11.3 0.00 0.00 0.00 34 1018.1
20260502001603 13 157 9.7 11.3 0.00 0.00 0.00 34 1018.1
20260502001103 12 180 6.4 9.7 0.00 0.00 0.00 34 1018.1
20260502000603 12 180 8.0 9.7 0.00 0.00 0.00 34 1018.3
20260501235603 12 157 8.0 8.0 0.00 0.00 0.00 35 1018.3
20260501235103 12 180 4.8 8.0 0.00 0.00 0.00 35 1018.2
20260501234603 12 157 6.4 12.9 0.00 0.00 0.00 36 1018.3
20260501234103 11 180 4.8 9.7 0.00 0.00 0.00 37 1018.4
20260501233604 11 180 8.0 9.7 0.00 0.00 0.00 36 1018.5
20260501233104 11 180 0.0 1.6 0.00 0.00 0.00 37 1018.4
20260501232604 11 180 0.0 4.8 0.00 0.00 0.00 36 1018.6
20260501232104 11 180 0.0 0.0 0.00 0.00 0.00 36 1018.8
20260501231604 11 180 0.0 0.0 0.00 0.00 0.00 35 1018.6
20260501231104 11 180 0.0 4.8 0.00 0.00 0.00 35 1018.7
20260501230604 11 180 0.0 6.4 0.00 0.00 0.00 34 1018.7
20260501225604 12 180 0.0 3.2 0.00 0.00 0.00 34 1018.8
20260501225104 12 180 1.6 3.2 0.00 0.00 0.00 33 1018.9
20260501224604 12 180 1.6 4.8 0.00 0.00 0.00 33 1018.8
20260501224104 12 180 0.0 4.8 0.00 0.00 0.00 33 1018.9
20260501223604 12 180 0.0 1.6 0.00 0.00 0.00 32 1018.9
20260501223104 12 180 0.0 9.7 0.00 0.00 0.00 33 1019.0
20260501222604 12 180 8.0 9.7 0.00 0.00 0.00 33 1019.0
20260501222104 12 180 6.4 8.0 0.00 0.00 0.00 33 1019.1
20260501221604 12 180 3.2 3.2 0.00 0.00 0.00 32 1019.2
20260501221104 12 180 3.2 6.4 0.00 0.00 0.00 31 1019.1
20260501220604 13 180 0.0 1.6 0.00 0.00 0.00 31 1019.1
20260501220104 13 180 0.0 4.8 0.00 0.00 0.00 30 1019.1
20260501215604 13 180 0.0 9.7 0.00 0.00 0.00 30 1019.1
20260501215104 13 180 8.0 11.3 0.00 0.00 0.00 30 1019.0